User: anonymous   Login
Location: *
(38.4303°S, 157.0822°W)
Time: 18:47:26
(UTC+00:00)
Language:

DMSP B5D2-2 - Orbit

View from above orbital plane
View from above orbital plane
View from above satellite
View from above satellite

Ground track
Ground track

The orbit data is extracted from the following two-line orbital elements,

1 14506U 83113A   24199.46982446  .00000590  00000-0  24959-3 0  9996
2 14506  98.3337   0.5402 0011869 134.2879 290.9708 14.28970892115520
Epoch (UTC): 17 July 2024 11:16:32
Eccentricity: 0.0011869
inclination: 98.3337°
perigee height: 786 km
apogee height: 803 km
right ascension of ascending node: 0.5402°
argument of perigee: 134.2879°
revolutions per day: 14.28970892
mean anomaly at epoch: 290.9708°
orbit number at epoch: 11552

The dashed part of the orbit path shows where the satellite is in the earth's shadow,  

DLR